BAW482 EGLL-LEBL

Flight info

Callsign BAW482
Flight time 1h 42m
Altitude 39000
Route MODMI M185 MID L151 SITET UN859 SOPIL DCT BALAN DCT EVPOK DCT NARAK DCT GAI DCT LOMRA DCT ROCAN DCT PUMAL
Aircraft A320/M-SDE3FGHIRWY/LB1

Departure

Time 2026-05-05 14:38
Airport London Heathrow Airport (EGLL)

Arrival

Time 2026-05-05 16:20
Airport Josep Tarradellas Barcelona-El Prat Airport (LEBL)
Time Latitude Longitude Altitude Speed Heading
2026-05-05 13:46 51.46939 -0.47180 86 ft 0 kts 89°
2026-05-05 14:30 51.46939 -0.47213 86 ft 4 kts 89°
2026-05-05 14:30 51.46939 -0.47256 86 ft 4 kts 89°
2026-05-05 14:30 51.46938 -0.47291 90 ft 3 kts 91°
2026-05-05 14:30 51.46943 -0.47330 89 ft 4 kts 127°
2026-05-05 14:31 51.46962 -0.47351 86 ft 3 kts 179°
2026-05-05 14:31 51.46982 -0.47351 86 ft 0 kts 179°
2026-05-05 14:33 51.46950 -0.47351 88 ft 14 kts 179°
2026-05-05 14:33 51.46833 -0.47350 86 ft 18 kts 179°
2026-05-05 14:34 51.46705 -0.47349 86 ft 15 kts 180°
2026-05-05 14:34 51.46654 -0.47472 86 ft 16 kts 273°
2026-05-05 14:34 51.46655 -0.47670 86 ft 19 kts 269°
2026-05-05 14:34 51.46654 -0.47899 86 ft 22 kts 270°
2026-05-05 14:35 51.46654 -0.48128 88 ft 11 kts 269°
2026-05-05 14:35 51.46653 -0.48286 86 ft 17 kts 269°
2026-05-05 14:35 51.46626 -0.48458 91 ft 13 kts 224°
2026-05-05 14:35 51.46595 -0.48467 86 ft 0 kts 181°
2026-05-05 14:36 51.46587 -0.48467 90 ft 3 kts 181°
2026-05-05 14:36 51.46506 -0.48455 88 ft 18 kts 158°
2026-05-05 14:37 51.46479 -0.48288 88 ft 17 kts 89°
2026-05-05 14:37 51.46479 -0.47998 87 ft 53 kts 89°
2026-05-05 14:37 51.46483 -0.47025 89 ft 117 kts 90°
2026-05-05 14:37 51.46492 -0.45439 92 ft 165 kts 89°
2026-05-05 14:38 51.46501 -0.43504 501 ft 182 kts 89°
2026-05-05 14:38 51.46391 -0.41436 1161 ft 190 kts 109°
2026-05-05 14:38 51.45643 -0.39633 1727 ft 205 kts 127°
2026-05-05 14:38 51.44600 -0.37898 2146 ft 231 kts 148°
2026-05-05 14:39 51.43024 -0.36910 2667 ft 256 kts 161°
2026-05-05 14:39 51.41274 -0.36046 3406 ft 268 kts 168°
2026-05-05 14:39 51.39394 -0.36105 4319 ft 275 kts 195°
2026-05-05 14:39 51.37646 -0.37270 5261 ft 277 kts 206°
2026-05-05 14:40 51.35894 -0.38646 5797 ft 282 kts 206°
2026-05-05 14:40 51.34143 -0.40039 5968 ft 281 kts 207°
2026-05-05 14:40 51.32394 -0.41432 5999 ft 280 kts 206°
2026-05-05 14:40 51.30647 -0.42818 6006 ft 280 kts 206°
2026-05-05 14:41 51.28901 -0.44197 6002 ft 279 kts 206°
2026-05-05 14:41 51.27158 -0.45568 6001 ft 280 kts 206°
2026-05-05 14:41 51.25417 -0.46955 5997 ft 279 kts 206°
2026-05-05 14:41 51.23676 -0.48345 6006 ft 280 kts 207°
2026-05-05 14:42 51.21921 -0.49734 6339 ft 286 kts 206°
2026-05-05 14:42 51.20141 -0.51119 7375 ft 285 kts 206°
2026-05-05 14:42 51.18344 -0.52505 8291 ft 288 kts 206°
2026-05-05 14:42 51.16549 -0.53888 9156 ft 291 kts 206°
2026-05-05 14:43 51.14707 -0.55309 9998 ft 295 kts 206°
2026-05-05 14:43 51.12803 -0.56779 10433 ft 316 kts 206°
2026-05-05 14:43 51.10754 -0.58363 10777 ft 335 kts 206°
2026-05-05 14:43 51.08609 -0.59915 11425 ft 342 kts 199°
2026-05-05 14:44 51.06309 -0.60796 12134 ft 346 kts 186°
2026-05-05 14:44 51.03898 -0.60818 12852 ft 349 kts 172°
2026-05-05 14:44 51.01529 -0.59946 13579 ft 351 kts 159°
2026-05-05 14:44 50.99268 -0.58470 14300 ft 353 kts 156°
2026-05-05 14:45 50.96996 -0.56956 14994 ft 356 kts 156°
2026-05-05 14:45 50.94700 -0.55433 15656 ft 358 kts 157°
2026-05-05 14:45 50.92383 -0.53904 16298 ft 361 kts 157°
2026-05-05 14:45 50.90051 -0.52368 16931 ft 364 kts 157°
2026-05-05 14:46 50.87706 -0.50825 17561 ft 367 kts 157°
2026-05-05 14:46 50.85338 -0.49269 18188 ft 369 kts 157°
2026-05-05 14:46 50.82986 -0.47724 18815 ft 372 kts 157°
2026-05-05 14:46 50.80585 -0.46149 19444 ft 375 kts 157°
2026-05-05 14:47 50.78161 -0.44561 20064 ft 377 kts 157°
2026-05-05 14:47 50.75731 -0.42968 20664 ft 380 kts 157°
2026-05-05 14:47 50.73277 -0.41366 21221 ft 383 kts 158°
2026-05-05 14:47 50.70804 -0.39750 21781 ft 386 kts 158°
2026-05-05 14:48 50.68313 -0.38128 22332 ft 388 kts 158°
2026-05-05 14:48 50.65811 -0.36503 22867 ft 390 kts 158°
2026-05-05 14:48 50.63290 -0.34868 23372 ft 394 kts 158°
2026-05-05 14:48 50.60742 -0.33218 23878 ft 396 kts 158°
2026-05-05 14:49 50.58186 -0.31561 24379 ft 399 kts 158°
2026-05-05 14:49 50.55613 -0.29893 24860 ft 401 kts 158°
2026-05-05 14:49 50.53058 -0.28237 25332 ft 402 kts 158°
2026-05-05 14:49 50.50432 -0.26536 25811 ft 404 kts 158°
2026-05-05 14:50 50.47860 -0.24874 26257 ft 406 kts 158°
2026-05-05 14:50 50.45234 -0.23184 26708 ft 407 kts 158°
2026-05-05 14:50 50.42609 -0.21496 27128 ft 409 kts 158°
2026-05-05 14:50 50.39970 -0.19796 27537 ft 410 kts 158°
2026-05-05 14:51 50.37320 -0.18090 27949 ft 412 kts 158°
2026-05-05 14:51 50.34663 -0.16380 28349 ft 413 kts 158°
2026-05-05 14:51 50.32001 -0.14669 28732 ft 415 kts 158°
2026-05-05 14:51 50.29328 -0.12960 29109 ft 416 kts 158°
2026-05-05 14:52 50.26637 -0.11244 29500 ft 417 kts 158°
2026-05-05 14:52 50.23947 -0.09527 29873 ft 419 kts 158°
2026-05-05 14:52 50.21244 -0.07803 30236 ft 420 kts 158°
2026-05-05 14:52 50.18538 -0.06034 30574 ft 422 kts 157°
2026-05-05 14:53 50.15837 -0.04181 30865 ft 425 kts 156°
2026-05-05 14:53 50.13168 -0.02298 31146 ft 428 kts 156°
2026-05-05 14:53 50.10438 -0.00413 31529 ft 428 kts 160°
2026-05-05 14:53 50.07595 0.00953 31922 ft 427 kts 166°
2026-05-05 14:54 50.04728 0.02099 32409 ft 424 kts 165°
2026-05-05 14:54 50.01877 0.03225 32875 ft 422 kts 166°
2026-05-05 14:54 49.99038 0.04343 33334 ft 419 kts 166°
2026-05-05 14:54 49.96211 0.05453 33777 ft 418 kts 166°
2026-05-05 14:55 49.93396 0.06555 34222 ft 416 kts 166°
2026-05-05 14:55 49.90587 0.07654 34623 ft 415 kts 166°
2026-05-05 14:55 49.87780 0.08752 34941 ft 416 kts 166°
2026-05-05 14:55 49.85000 0.09835 35237 ft 418 kts 166°
2026-05-05 14:56 49.82176 0.10933 35521 ft 419 kts 166°
2026-05-05 14:56 49.79342 0.12034 35802 ft 420 kts 166°
2026-05-05 14:56 49.76512 0.13139 36068 ft 421 kts 166°
2026-05-05 14:56 49.73664 0.14254 36330 ft 422 kts 166°
2026-05-05 14:57 49.70817 0.15366 36554 ft 423 kts 166°
2026-05-05 14:57 49.67955 0.16480 36809 ft 424 kts 166°
2026-05-05 14:57 49.66061 0.17224 37041 ft 422 kts 166°
2026-05-05 14:57 49.63224 0.18358 37387 ft 420 kts 166°
2026-05-05 14:58 49.59466 0.19883 37726 ft 421 kts 166°
2026-05-05 14:58 49.56632 0.21036 37925 ft 422 kts 166°
2026-05-05 14:58 49.53786 0.22189 38133 ft 423 kts 166°
2026-05-05 14:58 49.51859 0.22967 38259 ft 424 kts 166°
2026-05-05 14:59 49.49028 0.24107 38456 ft 425 kts 167°
2026-05-05 14:59 49.46126 0.25270 38643 ft 426 kts 166°
2026-05-05 14:59 49.43286 0.26403 38826 ft 428 kts 167°
2026-05-05 14:59 49.40395 0.27556 38890 ft 431 kts 167°
2026-05-05 15:00 49.34566 0.29883 38895 ft 433 kts 167°
2026-05-05 15:00 49.28736 0.32211 38896 ft 433 kts 166°
2026-05-05 15:01 49.22927 0.34665 38887 ft 433 kts 166°
2026-05-05 15:01 49.17114 0.37147 38889 ft 433 kts 166°
2026-05-05 15:02 49.11294 0.39611 38893 ft 434 kts 166°
2026-05-05 15:02 49.05469 0.42048 38897 ft 434 kts 166°
2026-05-05 15:03 48.99679 0.44466 38893 ft 434 kts 166°
2026-05-05 15:03 48.93842 0.46892 38898 ft 434 kts 166°
2026-05-05 15:04 48.88000 0.49320 38895 ft 435 kts 166°
2026-05-05 15:04 48.82154 0.51751 38894 ft 435 kts 166°
2026-05-05 15:05 48.73412 0.55299 38894 ft 436 kts 167°
2026-05-05 15:06 48.67535 0.57567 38892 ft 435 kts 167°
2026-05-05 15:06 48.61654 0.59835 38886 ft 435 kts 167°
2026-05-05 15:07 48.55821 0.62109 38886 ft 435 kts 166°
2026-05-05 15:07 48.49956 0.64412 38887 ft 435 kts 166°
2026-05-05 15:08 48.44103 0.66790 38887 ft 436 kts 166°
2026-05-05 15:08 48.38255 0.69201 38887 ft 436 kts 166°
2026-05-05 15:09 48.32395 0.71591 38886 ft 436 kts 166°
2026-05-05 15:09 48.26539 0.73951 38884 ft 436 kts 166°
2026-05-05 15:10 48.20673 0.76297 38875 ft 436 kts 166°
2026-05-05 15:10 48.14837 0.78582 38872 ft 436 kts 166°
2026-05-05 15:11 48.08964 0.80872 38869 ft 435 kts 166°
2026-05-05 15:11 48.03096 0.83171 38862 ft 435 kts 166°
2026-05-05 15:12 47.97265 0.85452 38854 ft 435 kts 167°
2026-05-05 15:12 47.91405 0.87734 38854 ft 434 kts 167°
2026-05-05 15:13 47.85550 0.90009 38855 ft 434 kts 167°
2026-05-05 15:13 47.79705 0.92275 38858 ft 433 kts 167°
2026-05-05 15:14 47.73900 0.94519 38855 ft 434 kts 167°
2026-05-05 15:14 47.68053 0.96782 38861 ft 434 kts 167°
2026-05-05 15:15 47.62190 0.99050 38866 ft 435 kts 167°
2026-05-05 15:15 47.56334 1.01304 38874 ft 435 kts 167°
2026-05-05 15:16 47.50468 1.03544 38875 ft 435 kts 167°
2026-05-05 15:16 47.44632 1.05753 38874 ft 435 kts 169°
2026-05-05 15:17 47.38634 1.06351 38877 ft 432 kts 182°
2026-05-05 15:17 47.32621 1.06191 38879 ft 432 kts 182°
2026-05-05 15:18 47.26589 1.06055 38879 ft 433 kts 182°
2026-05-05 15:18 47.20569 1.05921 38884 ft 433 kts 182°
2026-05-05 15:19 47.14579 1.05781 38888 ft 433 kts 182°
2026-05-05 15:19 47.08555 1.05640 38890 ft 432 kts 182°
2026-05-05 15:20 47.02540 1.05497 38890 ft 432 kts 182°
2026-05-05 15:20 46.96528 1.05295 38890 ft 432 kts 183°
2026-05-05 15:21 46.90558 1.05008 38887 ft 431 kts 183°
2026-05-05 15:21 46.84568 1.04718 38888 ft 431 kts 183°
2026-05-05 15:22 46.78379 1.04448 38888 ft 431 kts 183°
2026-05-05 15:22 46.72568 1.04212 38889 ft 431 kts 183°
2026-05-05 15:23 46.66561 1.03970 38890 ft 431 kts 183°
2026-05-05 15:23 46.60606 1.03708 38894 ft 431 kts 183°
2026-05-05 15:24 46.54609 1.03454 38898 ft 431 kts 183°
2026-05-05 15:24 46.48646 1.04307 38899 ft 433 kts 168°
2026-05-05 15:25 46.42766 1.06293 38902 ft 434 kts 169°
2026-05-05 15:25 46.36881 1.08256 38906 ft 434 kts 169°
2026-05-05 15:26 46.30992 1.10219 38911 ft 433 kts 169°
2026-05-05 15:26 46.25149 1.12169 38913 ft 433 kts 169°
2026-05-05 15:27 46.19279 1.14126 38912 ft 433 kts 169°
2026-05-05 15:27 46.13411 1.16059 38918 ft 432 kts 169°
2026-05-05 15:28 46.07542 1.17996 38926 ft 432 kts 169°
2026-05-05 15:28 46.01683 1.19925 38930 ft 431 kts 169°
2026-05-05 15:29 45.95827 1.21849 38932 ft 431 kts 169°
2026-05-05 15:29 45.90018 1.23754 38934 ft 431 kts 170°
2026-05-05 15:30 45.84172 1.25676 38929 ft 431 kts 169°
2026-05-05 15:30 45.78311 1.27595 38935 ft 431 kts 169°
2026-05-05 15:31 45.72460 1.29505 38933 ft 431 kts 170°
2026-05-05 15:31 45.66605 1.31415 38941 ft 431 kts 170°
2026-05-05 15:32 45.60785 1.33303 38941 ft 431 kts 170°
2026-05-05 15:32 45.54922 1.35197 38940 ft 432 kts 170°
2026-05-05 15:33 45.49064 1.37094 38945 ft 431 kts 170°
2026-05-05 15:33 45.43211 1.38981 38945 ft 431 kts 170°
2026-05-05 15:34 45.37352 1.40868 38945 ft 431 kts 170°
2026-05-05 15:34 45.31530 1.42743 38949 ft 431 kts 170°
2026-05-05 15:35 45.25662 1.44616 38949 ft 431 kts 170°
2026-05-05 15:35 45.19786 1.46491 38952 ft 432 kts 170°
2026-05-05 15:36 45.13925 1.48372 38956 ft 432 kts 171°
2026-05-05 15:36 45.08060 1.50251 38960 ft 432 kts 171°
2026-05-05 15:37 45.02227 1.52101 38960 ft 431 kts 171°
2026-05-05 15:37 44.96374 1.53938 38959 ft 431 kts 171°
2026-05-05 15:38 44.90511 1.55788 38960 ft 431 kts 171°
2026-05-05 15:38 44.84653 1.57653 38961 ft 432 kts 171°
2026-05-05 15:39 44.78825 1.59490 38965 ft 432 kts 171°
2026-05-05 15:39 44.72958 1.61341 38969 ft 432 kts 171°
2026-05-05 15:40 44.67086 1.63188 38968 ft 432 kts 171°
2026-05-05 15:40 44.61223 1.65016 38965 ft 431 kts 172°
2026-05-05 15:41 44.55365 1.66845 38963 ft 431 kts 172°
2026-05-05 15:41 44.49509 1.68675 38963 ft 431 kts 172°
2026-05-05 15:42 44.43695 1.70488 38962 ft 431 kts 172°
2026-05-05 15:42 44.37842 1.72301 38961 ft 430 kts 172°
2026-05-05 15:43 44.31995 1.74116 38961 ft 430 kts 172°
2026-05-05 15:43 44.26137 1.75801 38961 ft 429 kts 175°
2026-05-05 15:44 44.20252 1.77072 38967 ft 428 kts 176°
2026-05-05 15:44 44.14394 1.78246 38969 ft 428 kts 176°
2026-05-05 15:45 44.08466 1.79515 38969 ft 428 kts 175°
2026-05-05 15:45 44.02612 1.80823 38971 ft 428 kts 175°
2026-05-05 15:46 43.96720 1.82132 38971 ft 428 kts 175°
2026-05-05 15:46 43.90819 1.83105 38971 ft 425 kts 180°
2026-05-05 15:47 43.85913 1.83515 38971 ft 424 kts 181°
2026-05-05 15:47 43.79068 1.84003 38971 ft 424 kts 181°
2026-05-05 15:48 43.73165 1.84535 38971 ft 425 kts 180°
2026-05-05 15:48 43.68256 1.85028 38970 ft 425 kts 180°
2026-05-05 15:49 43.62362 1.85623 38967 ft 424 kts 180°
2026-05-05 15:49 43.56477 1.86186 38964 ft 424 kts 181°
2026-05-05 15:50 43.50593 1.86743 38961 ft 424 kts 181°
2026-05-05 15:50 43.44702 1.87311 38960 ft 424 kts 181°
2026-05-05 15:51 43.38810 1.87885 38958 ft 424 kts 181°
2026-05-05 15:51 43.32924 1.88454 38955 ft 423 kts 181°
2026-05-05 15:52 43.27079 1.89018 38879 ft 427 kts 181°
2026-05-05 15:52 43.24077 1.89300 38624 ft 436 kts 181°
2026-05-05 15:52 43.21047 1.89587 38188 ft 435 kts 181°
2026-05-05 15:52 43.18040 1.89875 37599 ft 431 kts 181°
2026-05-05 15:53 43.15056 1.90160 37067 ft 426 kts 181°
2026-05-05 15:53 43.12097 1.90443 36366 ft 425 kts 182°
2026-05-05 15:53 43.09165 1.90724 35812 ft 419 kts 182°
2026-05-05 15:53 43.06277 1.90994 34968 ft 422 kts 182°
2026-05-05 15:54 43.03366 1.91269 34523 ft 415 kts 183°
2026-05-05 15:54 43.00502 1.91545 34047 ft 409 kts 183°
2026-05-05 15:54 42.97687 1.91817 33582 ft 403 kts 183°
2026-05-05 15:54 42.94906 1.92084 33120 ft 397 kts 184°
2026-05-05 15:55 42.92170 1.92342 32645 ft 392 kts 184°
2026-05-05 15:55 42.89458 1.92596 32182 ft 387 kts 184°
2026-05-05 15:55 42.86788 1.92848 31726 ft 382 kts 184°
2026-05-05 15:55 42.84148 1.93097 31272 ft 377 kts 184°
2026-05-05 15:56 42.81548 1.93340 30823 ft 372 kts 185°
2026-05-05 15:56 42.78984 1.93581 30393 ft 367 kts 185°
2026-05-05 15:56 42.76452 1.93821 29959 ft 362 kts 185°
2026-05-05 15:56 42.73948 1.94056 29539 ft 358 kts 185°
2026-05-05 15:57 42.71507 1.94284 29129 ft 355 kts 185°
2026-05-05 15:57 42.69059 1.94513 28676 ft 351 kts 185°
2026-05-05 15:57 42.66628 1.94763 28215 ft 349 kts 183°
2026-05-05 15:57 42.64220 1.95153 27795 ft 347 kts 181°
2026-05-05 15:58 42.61830 1.95637 27385 ft 347 kts 180°
2026-05-05 15:58 42.59440 1.96163 26961 ft 347 kts 179°
2026-05-05 15:58 42.57062 1.96695 26558 ft 345 kts 179°
2026-05-05 15:58 42.54692 1.97211 26151 ft 343 kts 179°
2026-05-05 15:59 42.52360 1.97701 25741 ft 342 kts 180°
2026-05-05 15:59 42.50004 1.98181 25328 ft 341 kts 180°
2026-05-05 15:59 42.47664 1.98649 24915 ft 340 kts 180°
2026-05-05 15:59 42.45330 1.99113 24503 ft 337 kts 180°
2026-05-05 16:00 42.43014 1.99574 24089 ft 335 kts 179°
2026-05-05 16:00 42.40711 2.00031 23646 ft 333 kts 179°
2026-05-05 16:00 42.38447 2.00487 23218 ft 332 kts 179°
2026-05-05 16:00 42.36167 2.00940 22791 ft 329 kts 180°
2026-05-05 16:01 42.33900 2.01294 22307 ft 327 kts 181°
2026-05-05 16:01 42.31664 2.01565 21866 ft 326 kts 182°
2026-05-05 16:01 42.29402 2.01807 21391 ft 325 kts 182°
2026-05-05 16:01 42.27151 2.02039 20971 ft 324 kts 182°
2026-05-05 16:02 42.24912 2.02282 20523 ft 322 kts 182°
2026-05-05 16:02 42.22682 2.02538 20069 ft 321 kts 181°
2026-05-05 16:02 42.20463 2.02800 19611 ft 319 kts 181°
2026-05-05 16:02 42.18257 2.03061 19151 ft 318 kts 181°
2026-05-05 16:03 42.16055 2.03326 18687 ft 317 kts 181°
2026-05-05 16:03 42.13865 2.03595 18260 ft 315 kts 180°
2026-05-05 16:03 42.11688 2.03860 17828 ft 313 kts 180°
2026-05-05 16:03 42.09526 2.04121 17389 ft 311 kts 180°
2026-05-05 16:04 42.07365 2.04379 16936 ft 311 kts 180°
2026-05-05 16:04 42.05217 2.04637 16525 ft 309 kts 180°
2026-05-05 16:04 42.03124 2.04892 16229 ft 303 kts 180°
2026-05-05 16:04 42.01041 2.05381 15852 ft 312 kts 165°
2026-05-05 16:05 41.99165 2.06951 15474 ft 327 kts 141°
2026-05-05 16:05 41.97694 2.09319 15065 ft 331 kts 133°
2026-05-05 16:05 41.96317 2.11794 14650 ft 330 kts 132°
2026-05-05 16:05 41.94948 2.14267 14248 ft 329 kts 132°
2026-05-05 16:06 41.93577 2.16738 13866 ft 328 kts 132°
2026-05-05 16:06 41.92214 2.19186 13504 ft 326 kts 132°
2026-05-05 16:06 41.90857 2.21607 13128 ft 323 kts 132°
2026-05-05 16:06 41.89500 2.24009 12740 ft 321 kts 132°
2026-05-05 16:07 41.88170 2.26350 12369 ft 319 kts 132°
2026-05-05 16:07 41.86820 2.28712 11984 ft 317 kts 132°
2026-05-05 16:07 41.85476 2.31050 11608 ft 315 kts 132°
2026-05-05 16:07 41.84138 2.33364 11230 ft 313 kts 132°
2026-05-05 16:08 41.82801 2.35663 10852 ft 312 kts 132°
2026-05-05 16:08 41.81473 2.37951 10447 ft 310 kts 132°
2026-05-05 16:08 41.80155 2.40198 10087 ft 302 kts 135°
2026-05-05 16:08 41.78565 2.41867 9867 ft 285 kts 160°
2026-05-05 16:09 41.76674 2.42450 9575 ft 276 kts 179°
2026-05-05 16:09 41.74753 2.42540 9220 ft 276 kts 182°
2026-05-05 16:09 41.72832 2.42569 8894 ft 276 kts 182°
2026-05-05 16:09 41.70909 2.42585 8553 ft 275 kts 182°
2026-05-05 16:10 41.69009 2.42595 8203 ft 273 kts 182°
2026-05-05 16:10 41.67118 2.42598 8102 ft 272 kts 182°
2026-05-05 16:10 41.65216 2.42596 8114 ft 274 kts 182°
2026-05-05 16:10 41.63333 2.42592 7938 ft 272 kts 182°
2026-05-05 16:11 41.61447 2.42585 7589 ft 271 kts 182°
2026-05-05 16:11 41.55833 2.42546 6572 ft 266 kts 182°
2026-05-05 16:12 41.53983 2.42525 6238 ft 265 kts 182°
2026-05-05 16:12 41.50315 2.42466 5555 ft 260 kts 182°
2026-05-05 16:13 41.44855 2.42325 4556 ft 259 kts 183°
2026-05-05 16:13 41.43123 2.41900 4288 ft 253 kts 200°
2026-05-05 16:13 41.41625 2.40802 4147 ft 237 kts 218°
2026-05-05 16:14 41.39822 2.37568 3887 ft 203 kts 244°
2026-05-05 16:14 41.38737 2.34361 3701 ft 177 kts 244°
2026-05-05 16:15 41.37767 2.31505 3381 ft 164 kts 243°
2026-05-05 16:15 41.36846 2.28792 2970 ft 158 kts 243°
2026-05-05 16:16 41.35947 2.26145 2557 ft 155 kts 243°
2026-05-05 16:16 41.35089 2.23622 2151 ft 143 kts 243°
2026-05-05 16:17 41.34282 2.21253 1788 ft 140 kts 244°
2026-05-05 16:17 41.33887 2.20091 1619 ft 138 kts 244°
2026-05-05 16:18 41.33102 2.17788 1252 ft 136 kts 244°
2026-05-05 16:18 41.32711 2.16642 1065 ft 135 kts 244°
2026-05-05 16:18 41.31969 2.14355 699 ft 135 kts 243°
2026-05-05 16:19 41.31562 2.13235 479 ft 134 kts 243°
2026-05-05 16:19 41.31168 2.12112 312 ft 134 kts 245°
2026-05-05 16:19 41.30396 2.09850 22 ft 129 kts 244°
2026-05-05 16:20 41.29866 2.08309 19 ft 59 kts 245°
2026-05-05 16:20 41.29557 2.07794 19 ft 16 kts 217°
2026-05-05 16:21 41.29492 2.07728 18 ft 0 kts 217°
2026-05-05 16:22 41.29484 2.07719 18 ft 6 kts 222°
2026-05-05 16:22 41.29397 2.07489 18 ft 18 kts 245°
2026-05-05 16:23 41.29306 2.07360 18 ft 5 kts 171°
2026-05-05 16:23 41.29282 2.07371 18 ft 7 kts 158°
2026-05-05 16:23 41.29195 2.07288 18 ft 12 kts 245°
2026-05-05 16:24 41.29155 2.07169 19 ft 16 kts 246°
2026-05-05 16:24 41.29133 2.07107 18 ft 4 kts 245°
2026-05-05 16:24 41.29066 2.07090 18 ft 7 kts 153°
2026-05-05 16:25 41.29050 2.07100 18 ft 1 kts 154°
2026-05-05 16:25 41.29047 2.07102 18 ft 0 kts 154°